User: anonymous   Login
Location: Unspecified
(0.0000°N, 0.0000°E)
Time: 01:08:57
(UTC+01:00)
Language:

OPAL - Orbit

View from above orbital plane
View from above orbital plane
View from above satellite
View from above satellite

Ground track
Ground track

The orbit data is extracted from the following two-line orbital elements,

1 26063U 00004C   14356.50924708  .00000319  00000-0  12797-3 0  1405
2 26063 100.2263 177.4073 0036328 348.4837 011.5509 14.36466153781052
Epoch (UTC): 22 December 2014 12:13:18
Eccentricity: 0.0036328
inclination: 100.2263°
perigee height: 744 km
apogee height: 796 km
right ascension of ascending node: 177.4073°
argument of perigee: 348.4837°
revolutions per day: 14.36466153
mean anomaly at epoch: 11.5509°
orbit number at epoch: 78105

The dashed part of the orbit path shows where the satellite is in the earth's shadow,  

DLR